Weather History for K2WX - November, 2012

Change the Weather History Date:

Sunday, November 25, 2012

  Actual Average Record
Temperature  
Mean Temperature 27 °F 27 °F  
Max Temperature 36 °F 37 °F 57 °F (2011)
Min Temperature 17 °F 17 °F -8 °F (2010)
Degree Days  
Heating Degree Days 38 38  
Month to date heating degree days 714 799  
Since 1 July heating degree days 1526 1700  
Cooling Degree Days 0 0  
Month to date cooling degree days 0 0  
Year to date cooling degree days 853 513  
Moisture  
Dew Point 22 °F    
Average Humidity 76    
Maximum Humidity 100    
Minimum Humidity 52    
Precipitation  
Precipitation 0.00 in 0.00 in 0.08 in (2014)
Month to date precipitation 0.11 0.30  
Year to date precipitation 8.28 14.22  
Sea Level Pressure  
Sea Level Pressure 30.07 in    
Wind  
Wind Speed 7 mph (NNW)    
Max Wind Speed 18 mph    
Max Gust Speed 21 mph    
T = Trace of Precipitation, MM = Missing Value Source: NWS Daily Summary

Daily Weather History Graph

Daily Weather History Graph

Search for Another Location

Airport or City:

Trip Planner

Search our weather history database for the weather conditions in past years. The results will help you decide how hot, cold, wet, or windy it might be!

Date:

Astronomy

Nov. 25, 2012 Rise Set
Actual Time 7:07 AM MST 4:14 PM MST
Civil Twilight 6:34 AM MST 4:47 PM MST
Nautical Twilight 5:57 AM MST 5:24 PM MST
Astronomical Twilight 5:22 AM MST 6:00 PM MST
Moon 2:37 PM MST (11/25) 4:18 AM MST (11/25)
Length of Visible Light 10h 13m
Length of Day
9h 07m
Waxing Gibbous, 93% of the Moon is Illuminated
Nov 25
Waxing Gibbous
Nov 28
Full
Dec 6
Last Quarter
Dec 13
New
Dec 19
First Quarter

Hourly Weather History & Observations

Time (MST) Temp. Windchill Dew Point Humidity Pressure Visibility Wind Dir Wind Speed Gust Speed Precip Events Conditions
12:56 AM 28.9 °F 21.1 °F 27.0 °F 92% 29.96 in - NNW 8.1 mph - N/A   Unknown
1:56 AM 28.9 °F 16.9 °F 28.0 °F 96% 29.98 in - NW 17.3 mph 20.7 mph N/A   Unknown
2:56 AM 28.9 °F 19.8 °F 27.0 °F 92% 29.98 in - NW 10.4 mph - N/A   Unknown
3:56 AM 27.0 °F 18.0 °F 26.1 °F 96% 29.96 in - West 9.2 mph - N/A   Unknown
4:56 AM 26.1 °F 20.5 °F 25.0 °F 96% 29.98 in - NW 4.6 mph - N/A   Unknown
5:56 AM 26.1 °F - 25.0 °F 96% 29.99 in - Calm Calm - N/A   Unknown
6:56 AM 25.0 °F 20.7 °F 23.0 °F 92% 30.00 in - WSW 3.5 mph - N/A   Unknown
7:56 AM 26.1 °F 21.9 °F 24.1 °F 92% 30.01 in - West 3.5 mph - N/A   Unknown
8:56 AM 27.0 °F 18.7 °F 25.0 °F 92% 30.04 in - WNW 8.1 mph - N/A   Unknown
9:56 AM 30.9 °F 25.2 °F 27.0 °F 85% 30.03 in - WNW 5.8 mph - N/A   Unknown
10:56 AM 32.0 °F 27.5 °F 24.1 °F 73% 30.03 in - NW 4.6 mph - N/A   Unknown
11:56 AM 34.0 °F 28.8 °F 23.0 °F 64% 30.01 in - NNW 5.8 mph - N/A   Unknown
12:56 PM 35.1 °F 29.3 °F 21.9 °F 59% 30.00 in - NNE 6.9 mph - N/A   Unknown
1:56 PM 36.0 °F 31.1 °F 19.0 °F 50% 30.01 in - North 5.8 mph - N/A   Unknown
2:56 PM 35.1 °F 30.1 °F 19.9 °F 54% 30.03 in - North 5.8 mph - N/A   Unknown
3:56 PM 30.9 °F 19.4 °F 23.0 °F 72% 30.07 in - NE 17.3 mph - N/A   Unknown
4:56 PM 27.0 °F 17.3 °F 21.9 °F 81% 30.11 in - NNE 10.4 mph - N/A   Unknown
5:56 PM 26.1 °F 18.4 °F 21.0 °F 81% 30.14 in - NNE 6.9 mph - N/A   Unknown
6:56 PM 25.0 °F 18.1 °F 19.9 °F 81% 30.19 in - North 5.8 mph - N/A   Unknown
7:56 PM 21.0 °F 12.4 °F 18.0 °F 88% 30.21 in - North 6.9 mph - N/A   Unknown
8:56 PM 19.9 °F 11.1 °F 17.1 °F 89% 30.23 in - North 6.9 mph - N/A   Unknown
9:56 PM 19.0 °F 10.0 °F 16.0 °F 88% 30.25 in - NNW 6.9 mph - N/A   Unknown
10:56 PM 18.0 °F 11.1 °F 15.1 °F 88% 30.27 in - North 4.6 mph - N/A   Unknown
11:56 PM 17.1 °F 8.7 °F 15.1 °F 92% 30.28 in - NNW 5.8 mph - N/A   Unknown